[[{"header":{"parameterUnit":"m.s-1","parameterCategory":1,"la1":30.2991,"la2":30.254,"lo1":-89.0895,"lo2":-89.0444,"dy":0.0017,"dx":0.0017,"nx":28,"ny":28,"refTime":"2025-11-13T09:00:00:Z","depth":0,"parameterNumber":2,"parameterNumberName":"U-component_of_WINDS"},"data":[0,0,0,0,0,0,0,0,0,0,0,0,0,0,0,0,0,0,0,0,0,0,0,0,0,0,0,0,0,0,0,0,0,0,0,0,0,0,0,0,0,0,0,0,0,0,0,0,0,0,0,0,0,0,0,0,0,0,0.4772,0.4772,0,0.4763,0.4763,0.4763,0.4772,0.4772,0.4772,0.4773,0.4764,0.4763,0.4763,0,0,0,0,0,0,0,0,0,0,0,0,0,0.4796,0.4796,0.4772,0.4772,0.4772,0.4763,0.4763,0.4763,0.4772,0.4772,0.4772,0.4773,0.4764,0.4763,0.4763,0,0,0,0,0,0,0,0,0,0,0,0,0,0.4787,0.4796,0.4772,0.4775,0.4775,0.4763,0.4763,0.4763,0.4772,0.4772,0.4773,0.4773,0.4764,0.4763,0.4762,0.4747,0,0,0.476,0.476,0,0,0,0,0,0,0,0,0.4787,0.4786,0.4775,0.4775,0.4775,0.4769,0.4768,0.4758,0.4771,0.4773,0.4773,0.4773,0.4765,0.4764,0.4761,0.4747,0.4746,0.476,0.4759,0.4759,0.4759,0,0,0,0,0,0,0,0.4788,0.4786,0.4768,0.4774,0.4775,0.4777,0.4776,0.4766,0.4766,0.4773,0.4773,0.4772,0.4765,0.4762,0.4761,0.4746,0.476,0.4759,0.4759,0.4758,0.4719,0.4719,0,0,0,0,0,0,0.4788,0.4787,0.4769,0.4768,0.4782,0.4776,0.4775,0.477,0.4766,0.4766,0.4772,0.4773,0.4763,0.4762,0.4761,0.4743,0.4759,0.4758,0.4758,0.472,0.4719,0.4718,0,0,0,0,0,0,0.4789,0.4786,0.4769,0.4778,0.4775,0.4775,0.477,0.477,0.4767,0.4766,0.4766,0.4769,0.4764,0.4762,0.4751,0.4743,0.4758,0.4757,0.472,0.472,0.4719,0.4707,0,0,0,0,0,0,0.4789,0.4787,0.478,0.4777,0.4775,0.4759,0.4769,0.4769,0.4765,0.4766,0.4763,0.4763,0.4764,0.4752,0.475,0.4742,0.4756,0.4721,0.472,0.4719,0.4708,0.4706,0.4704,0,0,0,0,0,0.479,0.4777,0.478,0.4778,0.4767,0.4758,0.4757,0.4759,0.4765,0.4759,0.4758,0.4763,0.4744,0.4751,0.4748,0.474,0.4722,0.472,0.4719,0.4709,0.4707,0.4704,0,0,0,0,0,0,0.4779,0.4777,0.478,0.4766,0.4762,0.476,0.4752,0.4756,0.475,0.4751,0.4754,0.4753,0.4741,0.474,0.4747,0.4726,0.4734,0.4732,0.4727,0.4725,0.4723,0.4723,0.4756,0,0,0,0,0,0.4775,0.4768,0.4766,0.4754,0.4752,0.4752,0.4748,0.475,0.4747,0.4745,0.4743,0.474,0.4733,0.4729,0.4723,0.4708,0.4708,0.4702,0.47,0.4698,0.4696,0.4689,0.4687,0.4715,0.4715,0.4715,0,0,0.4767,0.4765,0.476,0.4752,0.4749,0.4742,0.4751,0.4742,0.4737,0.4744,0.4733,0.4732,0.4728,0.4715,0.4709,0.4713,0.4689,0.4696,0.4695,0.4695,0.4688,0.4685,0.4683,0.4714,0.4714,0.4714,0,0,0.4747,0.4745,0.4735,0.4732,0.4728,0.4729,0.4726,0.4723,0.4723,0.4712,0.4717,0.4711,0.47,0.4697,0.4694,0.4675,0.4679,0.4673,0.4662,0.4655,0.4653,0.4651,0.4645,0.4643,0.4671,0.4671,0.4671,0,0.4737,0.4726,0.4729,0.472,0.4717,0.4723,0.4713,0.471,0.4705,0.4702,0.4707,0.4693,0.4691,0.4678,0.4673,0.4671,0.4668,0.4673,0.4653,0.4651,0.465,0.4644,0.4641,0.4671,0.4671,0.4671,0.4671,0,0.4714,0.4707,0.4699,0.4694,0.4689,0.468,0.4682,0.4677,0.468,0.468,0.4669,0.4667,0.4661,0.4658,0.466,0.4645,0.4648,0.4653,0.4661,0.4646,0.4641,0.4639,0.467,0.467,0.467,0.467,0,0,0.4687,0.4684,0.4682,0.468,0.4676,0.4671,0.4662,0.4656,0.4652,0.4648,0.4642,0.4632,0.4637,0.4634,0.4636,0.463,0.4615,0.4635,0.4635,0.4632,0.46,0.4596,0.4594,0.4618,0.4618,0.4617,0.46,0,0.4668,0.4653,0.4656,0.4642,0.4635,0.4641,0.4634,0.4631,0.4631,0.4626,0.4626,0.4619,0.4626,0.4624,0.4618,0.4618,0.4609,0.462,0.4612,0.4612,0.4613,0.4591,0.4587,0.4571,0.4598,0.4598,0.4598,0,0.4644,0.464,0.4625,0.4624,0.4621,0.4614,0.461,0.4604,0.4602,0.4602,0.4599,0.4602,0.4594,0.4603,0.4592,0.4599,0.4596,0.4595,0.4595,0.4594,0.4604,0.459,0.4566,0.4563,0.4594,0.4594,0.4595,0,0.4627,0.4617,0.4607,0.4605,0.4603,0.4599,0.4598,0.4595,0.4592,0.4588,0.4586,0.4581,0.4578,0.4575,0.4577,0.4583,0.4566,0.4574,0.4566,0.4566,0.4562,0.4563,0.4538,0.456,0.456,0.456,0.456,0,0.4605,0.4596,0.46,0.4593,0.4583,0.4587,0.4577,0.4577,0.4575,0.4569,0.4574,0.4568,0.4571,0.4566,0.4568,0.4559,0.4557,0.4558,0.4558,0.4558,0.4558,0.4556,0.4557,0.4559,0.456,0.456,0.456,0,0.4584,0.4586,0.4576,0.4575,0.4575,0.4567,0.4567,0.4561,0.4562,0.4555,0.4553,0.4554,0.4549,0.4551,0.4544,0.4545,0.4534,0.4536,0.4535,0.4536,0.4528,0.4529,0.4501,0.4498,0.4522,0.4522,0.4521,0,0.457,0.4564,0.4562,0.4559,0.4558,0.4552,0.4549,0.4552,0.4549,0.4546,0.4541,0.4536,0.4532,0.4522,0.4523,0.4518,0.452,0.4511,0.4519,0.4519,0.452,0.4521,0.4521,0.4509,0.4509,0.4508,0.4508,0,0.4546,0.4548,0.4543,0.4539,0.4536,0.4532,0.453,0.4527,0.453,0.4526,0.452,0.4517,0.4511,0.4506,0.4502,0.4501,0.4505,0.4506,0.4504,0.4503,0.4503,0.4503,0.4531,0.4506,0.4506,0.4506,0.4507,0.4507,0.4529,0.4523,0.4522,0.4517,0.4516,0.4513,0.4508,0.4509,0.4504,0.45,0.4502,0.4496,0.4494,0.4489,0.4488,0.4483,0.4487,0.4483,0.4483,0.4482,0.4481,0.4503,0.4482,0.4482,0.4482,0.4482,0.4482,0,0.4506,0.4505,0.4501,0.4497,0.4493,0.4498,0.4496,0.4492,0.4487,0.4485,0.4481,0.4475,0.447,0.447,0.4466,0.4462,0.4464,0.4461,0.4462,0.4461,0.4478,0.448,0.446,0.446,0.446,0.446,0.446,0.446,0.4493,0.4484,0.4486,0.4477,0.4477,0.4471,0.4469,0.4467,0.4466,0.4459,0.4455,0.4455,0.4455,0.445,0.4447,0.4447,0.4445,0.4441,0.4442,0.4458,0.446,0.4462,0.4465,0.4441,0.4441,0.4426,0.4426,0.4426]},{"header":{"parameterUnit":"m.s-1","parameterCategory":1,"la1":30.2991,"la2":30.254,"lo1":-89.0895,"lo2":-89.0444,"dy":0.0017,"dx":0.0017,"nx":28,"ny":28,"refTime":"2025-11-13T09:00:00:Z","depth":0,"parameterNumber":3,"parameterNumberName":"V-component_of_WINDS"},"data":[0,0,0,0,0,0,0,0,0,0,0,0,0,0,0,0,0,0,0,0,0,0,0,0,0,0,0,0,0,0,0,0,0,0,0,0,0,0,0,0,0,0,0,0,0,0,0,0,0,0,0,0,0,0,0,0,0,0,-0.7084,-0.7084,0,-0.7134,-0.7135,-0.7136,-0.7167,-0.7167,-0.7167,-0.7168,-0.7219,-0.722,-0.7221,0,0,0,0,0,0,0,0,0,0,0,0,0,-0.7016,-0.7017,-0.7084,-0.7084,-0.7085,-0.7134,-0.7135,-0.7136,-0.7167,-0.7167,-0.7167,-0.7168,-0.7218,-0.722,-0.7221,0,0,0,0,0,0,0,0,0,0,0,0,0,-0.7054,-0.7017,-0.7084,-0.7107,-0.7109,-0.7134,-0.7135,-0.7136,-0.7167,-0.7167,-0.7168,-0.7168,-0.7218,-0.7219,-0.7221,-0.7227,0,0,-0.7227,-0.7228,0,0,0,0,0,0,0,0,-0.7052,-0.7056,-0.7103,-0.7105,-0.7108,-0.7145,-0.713,-0.7166,-0.7167,-0.7145,-0.7168,-0.7168,-0.7194,-0.7198,-0.7206,-0.723,-0.7232,-0.7227,-0.7228,-0.7229,-0.7229,0,0,0,0,0,0,0,-0.7049,-0.7054,-0.7104,-0.7103,-0.7107,-0.7115,-0.7121,-0.7137,-0.7167,-0.7147,-0.7149,-0.7155,-0.7195,-0.7205,-0.7208,-0.7232,-0.7227,-0.7228,-0.723,-0.723,-0.7267,-0.7267,0,0,0,0,0,0,-0.7043,-0.7052,-0.7102,-0.7105,-0.708,-0.7116,-0.7122,-0.7133,-0.7167,-0.7173,-0.7155,-0.7156,-0.7201,-0.7206,-0.721,-0.7222,-0.7229,-0.723,-0.7231,-0.7267,-0.7267,-0.7267,0,0,0,0,0,0,-0.7041,-0.7047,-0.71,-0.7079,-0.7087,-0.7117,-0.7128,-0.7134,-0.7143,-0.7173,-0.7179,-0.7159,-0.7202,-0.7207,-0.7224,-0.7224,-0.7231,-0.7233,-0.7267,-0.7267,-0.7267,-0.7243,0,0,0,0,0,0,-0.7039,-0.7046,-0.7048,-0.7079,-0.7088,-0.7112,-0.7128,-0.7134,-0.7146,-0.7149,-0.7178,-0.7183,-0.7202,-0.7221,-0.7225,-0.7226,-0.7234,-0.7267,-0.7267,-0.7267,-0.7244,-0.7242,-0.7241,0,0,0,0,0,-0.7036,-0.7038,-0.7048,-0.7054,-0.7091,-0.7112,-0.7117,-0.7139,-0.7146,-0.7149,-0.7169,-0.7182,-0.7223,-0.7222,-0.7228,-0.7229,-0.7267,-0.7267,-0.7267,-0.7245,-0.7243,-0.7241,0,0,0,0,0,0,-0.7005,-0.7043,-0.7054,-0.7066,-0.7086,-0.7118,-0.7122,-0.7136,-0.7154,-0.7156,-0.7182,-0.7189,-0.7203,-0.7217,-0.7216,-0.7238,-0.7247,-0.7248,-0.7228,-0.7226,-0.7225,-0.7221,-0.7236,0,0,0,0,0,-0.7,-0.7014,-0.7046,-0.7054,-0.7063,-0.7091,-0.7101,-0.7117,-0.7138,-0.7147,-0.7168,-0.7188,-0.7206,-0.7217,-0.7234,-0.7247,-0.7255,-0.7251,-0.7249,-0.7247,-0.7248,-0.7258,-0.7257,-0.7266,-0.7266,-0.7266,0,0,-0.6989,-0.7011,-0.7018,-0.7048,-0.7066,-0.7081,-0.7098,-0.7112,-0.7124,-0.7149,-0.7166,-0.7182,-0.7207,-0.7222,-0.723,-0.7235,-0.7247,-0.7247,-0.7245,-0.7247,-0.7258,-0.7257,-0.7256,-0.7266,-0.7266,-0.7266,0,0,-0.6977,-0.6994,-0.7004,-0.7022,-0.7048,-0.7067,-0.7069,-0.71,-0.7112,-0.713,-0.715,-0.7165,-0.7194,-0.7212,-0.7224,-0.7223,-0.7237,-0.7228,-0.7219,-0.7229,-0.7228,-0.7228,-0.7229,-0.7229,-0.7228,-0.7228,-0.7228,0,-0.6959,-0.6983,-0.7007,-0.7021,-0.7035,-0.706,-0.7071,-0.7086,-0.7117,-0.7126,-0.7132,-0.7171,-0.7189,-0.721,-0.721,-0.7219,-0.7224,-0.7224,-0.7226,-0.7226,-0.7226,-0.7228,-0.7228,-0.7227,-0.7227,-0.7227,-0.7227,0,-0.6962,-0.6978,-0.6982,-0.7013,-0.7027,-0.7039,-0.7067,-0.7078,-0.7093,-0.7112,-0.7131,-0.7155,-0.7179,-0.7185,-0.7199,-0.7209,-0.7212,-0.7221,-0.723,-0.7224,-0.7226,-0.7226,-0.7225,-0.7226,-0.7226,-0.7226,0,0,-0.693,-0.6976,-0.6978,-0.6993,-0.7026,-0.7039,-0.7053,-0.7078,-0.7088,-0.7109,-0.7123,-0.7149,-0.7159,-0.7174,-0.719,-0.7199,-0.7199,-0.7208,-0.7209,-0.7207,-0.7214,-0.7208,-0.7208,-0.7209,-0.7209,-0.7209,-0.7213,0,-0.6924,-0.6952,-0.6975,-0.6995,-0.7011,-0.7036,-0.7049,-0.7071,-0.7089,-0.7107,-0.7127,-0.7146,-0.7156,-0.7166,-0.7175,-0.7197,-0.7201,-0.7197,-0.7223,-0.7224,-0.7217,-0.7209,-0.7201,-0.7203,-0.7213,-0.7214,-0.7214,0,-0.6921,-0.6943,-0.6964,-0.6997,-0.7005,-0.7016,-0.7043,-0.7058,-0.7084,-0.7097,-0.7115,-0.7133,-0.7151,-0.7159,-0.7185,-0.7182,-0.7194,-0.7207,-0.7207,-0.7211,-0.7219,-0.7214,-0.7204,-0.7205,-0.7215,-0.7215,-0.7215,0,-0.6899,-0.6933,-0.6951,-0.6963,-0.7002,-0.701,-0.7026,-0.7053,-0.7067,-0.709,-0.71,-0.7124,-0.7138,-0.7157,-0.7181,-0.7184,-0.7206,-0.7215,-0.7218,-0.7218,-0.7222,-0.7222,-0.7216,-0.7228,-0.7228,-0.7228,-0.7228,0,-0.689,-0.6903,-0.6942,-0.6953,-0.6968,-0.6996,-0.7011,-0.7029,-0.7053,-0.7069,-0.7092,-0.7107,-0.7138,-0.7157,-0.7176,-0.7197,-0.7202,-0.7214,-0.7219,-0.7212,-0.7211,-0.7221,-0.7222,-0.7228,-0.7228,-0.7228,-0.7228,0,-0.6868,-0.6894,-0.6916,-0.6952,-0.6961,-0.6971,-0.7003,-0.7015,-0.7035,-0.7056,-0.7062,-0.7094,-0.7118,-0.7144,-0.7176,-0.719,-0.7209,-0.7216,-0.72,-0.7204,-0.7207,-0.7206,-0.7208,-0.721,-0.7219,-0.7219,-0.7219,0,-0.6862,-0.6872,-0.691,-0.6923,-0.6939,-0.6959,-0.6974,-0.7002,-0.7017,-0.705,-0.7059,-0.7084,-0.7106,-0.7143,-0.717,-0.7195,-0.7204,-0.7202,-0.7207,-0.7201,-0.7206,-0.7205,-0.7207,-0.7201,-0.7201,-0.7201,-0.72,0,-0.6848,-0.6862,-0.6883,-0.6909,-0.6927,-0.6949,-0.6972,-0.6981,-0.7014,-0.703,-0.7055,-0.7072,-0.7106,-0.7132,-0.7161,-0.7179,-0.7196,-0.7199,-0.7201,-0.7195,-0.7186,-0.7193,-0.7198,-0.7199,-0.7199,-0.7199,-0.7199,-0.7199,-0.6835,-0.6847,-0.6876,-0.69,-0.692,-0.6942,-0.6956,-0.6979,-0.7,-0.7031,-0.7046,-0.7071,-0.71,-0.7141,-0.7159,-0.718,-0.7185,-0.7188,-0.7189,-0.7189,-0.7189,-0.7182,-0.7185,-0.7185,-0.7185,-0.7185,-0.7185,0,-0.6825,-0.6845,-0.6867,-0.6899,-0.6918,-0.6932,-0.6959,-0.6975,-0.6997,-0.7022,-0.7044,-0.7074,-0.71,-0.7129,-0.7157,-0.7168,-0.7177,-0.7175,-0.7174,-0.7179,-0.7181,-0.7177,-0.7167,-0.7167,-0.7167,-0.7167,-0.7167,-0.7167,-0.6822,-0.6843,-0.686,-0.6892,-0.6913,-0.6938,-0.6953,-0.6973,-0.6994,-0.7027,-0.7048,-0.7067,-0.7095,-0.7126,-0.715,-0.7159,-0.7168,-0.7164,-0.7175,-0.7177,-0.7178,-0.718,-0.7176,-0.7166,-0.7166,-0.7171,-0.7171,-0.7171]}]]